Tracking 33181 objects as of 19-Feb-2026
HD Live streaming from Space Station
objects crossing your sky now

SHIYAN 30 01

Track SHIYAN 30 01 now!
10-day predictions


NORAD ID: 65851
Int'l Code: 2025-222A
Perigee: 592.7 km
Apogee: 598.4 km
Inclination: 35.0 °
Period: 96.4 minutes
Semi major axis: 6966 km
RCS: Unknown
Launch date: September 30, 2025
Source: People's Republic of China (PRC)
Launch site: Xichang Space Center, China (XSC)
Your satellite tracking list
Your tracking list is empty




NASA's NSSDC Master Catalog

Two Line Element Set (TLE):
1 65851U 25222A   26049.87757267  .00002063  00000-0  19701-3 0  9990
2 65851  34.9870 251.6043 0004090  75.4807 284.6352 14.93059767 21355
Source of the keplerian elements: AFSPC